Flag for Austria Weather past 2 weeks in Judenburg, Styria, Austria

46 °F

More clouds than sun.

Feels Like: 46 °F
Forecast: 43 / 46 °F
Wind: 2 mph from Southeast

Location: Zeltweg

Current Time: Oct 13, 2015 at 2:41:42 PM

Latest Report: Oct 13, 2015 at 1:50 PM

Visibility: 4 mi

Pressure: 29.98 "Hg (27.40 "Hg at 739m altitude)

Humidity: 87%

Dew point: 43 °F

Location of JudenburgLocation

Historic Weather in Judenburg — Graph


Judenburg temperature yesterday

Maximum temperature yesterday: 55 °F (at 4:20 PM)
Minimum temperature yesterday: 36 °F (at 4:50 AM)
Average temperature yesterday: 43 °F

Past Weeks' High & Low Weather Summary

High66 °F (Oct 3, 3:50 PM)100% (Sep 29, 7:20 AM)30.51 "Hg (Sep 29, 7:20 AM)
Low28 °F (Sep 29, 7:20 AM)32% (Oct 5, 3:50 PM)29.80 "Hg (Oct 11, 6:50 AM)
Average50 °F78%30.14 "Hg
* Reported Sep 28 1:20 PM — Oct 13 1:20 PM, Judenburg, Weather by CustomWeather, © 2015

Note: Actual official high and low records may vary slightly from our data, if they occured in-between our weather recording intervals... More about our weather records


Judenburg weather history for previous 24 hours

Time TempWeatherWind HumidityBarometerVisibility
1:20 PM
Tue, Oct 13
46 °FMore clouds than sun.5 mph87%29.98 "Hg4 mi
12:50 PM46 °FLight rain. Mostly cloudy.2 mph87%29.98 "Hg4 mi
12:20 PM45 °FLight rain. Partly sunny.1 mph93%29.98 "Hg4 mi
11:50 AM45 °FLight rain. More clouds than sun.1 mph87%29.98 "Hg4 mi
11:20 AM45 °FLight rain. Partly sunny.2 mph87%29.98 "Hg4 mi
10:50 AM45 °FLight rain. Broken clouds.2 mph87%30.01 "Hg4 mi
10:20 AM45 °FBroken clouds.1 mph87%30.01 "Hg4 mi
9:50 AM43 °FBroken clouds.1 mph93%30.01 "Hg4 mi
9:20 AM43 °FFog.1 mph93%30.01 "Hg3 mi
8:50 AM41 °FFog.1 mph93%30.01 "Hg3 mi
8:20 AM41 °FFog.2 mph93%29.98 "Hg3 mi
7:50 AM41 °FFog.3 mph93%29.98 "Hg3 mi
7:20 AM39 °FFog.2 mph93%29.98 "Hg3 mi
6:50 AM39 °FPartly cloudy.1 mph93%29.98 "Hg4 mi
10:50 PM
Mon, Oct 12
43 °FPassing clouds.5 mph87%30.04 "Hg7 mi
9:50 PM43 °FPassing clouds.3 mph87%30.04 "Hg12 mi
8:50 PM41 °FPassing clouds.2 mph87%30.01 "Hg19 mi
7:50 PM43 °FPassing clouds.1 mph81%30.01 "Hg19 mi
6:50 PM43 °FScattered clouds.2 mph81%29.98 "Hg19 mi
5:50 PM48 °FScattered clouds.3 mph76%29.95 "Hg19 mi
4:50 PM55 °FPassing clouds.2 mph44%29.95 "Hg19 mi
4:20 PM55 °FPassing clouds.2 mph44%29.95 "Hg19 mi
3:50 PM54 °FPassing clouds.1 mph51%29.95 "Hg19 mi
3:20 PM54 °FPassing clouds.1 mph47%29.95 "Hg19 mi
2:50 PM52 °FPassing clouds.2 mph50%29.95 "Hg19 mi
2:20 PM50 °FSunny.2 mph62%29.95 "Hg19 mi
Weather by CustomWeather, © 2015

See weather overviewHow to use our weather pages